Hourly Data Report for October 04, 2017

All times are specified in Local Standard Time (LST). Add 1 hour to adjust for Daylight Saving Time where and when it is observed.

LYNN LAKE
MANITOBA

56°51'50.000" N
101°04'34.000" W
356.60 m
5061645
71078
YYL

Download Data

Hourly Data (October 2017)
Hourly Data Report for October 4, 2017
Temp Definition
°C
Dew Point Temp Definition
°C
Rel Hum Definition
%
Wind Dir Definition
10's deg

Wind Spd Definition
km/h
Visibility Definition
km
Stn Press Definition
kPa
Hmdx Definition


Wind Chill Definition


Weather Definition


TIME
00:00 Legend Double Dagger 5.5 0.5 70 23 17 16.1 96.81     LegendNANA
01:00 Legend Double Dagger 5.4 1.0 73 23 17 16.1 96.70     LegendNANA
02:00 Legend Double Dagger 6.3 1.1 70 25 22 16.1 96.64     LegendNANA
03:00 Legend Double Dagger 6.5 1.5 70 26 17 16.1 96.62     LegendNANA
04:00 Legend Double Dagger 6.6 1.6 70 27 13 16.1 96.60     LegendNANA
05:00 Legend Double Dagger 7.0 1.5 68 29 21 16.1 96.64     LegendNANA
06:00 Legend Double Dagger 5.3 2.9 84 33 18 16.1 96.75     LegendNANA
07:00 Legend Double Dagger 4.6 1.6 81 33 18 16.1 96.85     LegendNANA
08:00 Legend Double Dagger 4.6 1.6 81 34 18 16.1 96.96     LegendNANA
09:00 Legend Double Dagger 4.2 1.1 80 34 26 16.1 97.10     LegendNANA
10:00 Legend Double Dagger 4.3 0.2 75 34 28 16.1 97.21     LegendNANA
11:00 Legend Double Dagger 4.2 -0.5 71 32 21 16.1 97.30     LegendNANA
12:00 Legend Double Dagger 4.9 -0.9 66 33 18 16.1 97.37     LegendNANA
13:00 Legend Double Dagger 5.0 -4.0 52 32 18 16.1 97.41     LegendNANA
14:00 Legend Double Dagger 5.4 -4.9 48 33 28 16.1 97.46     LegendNANA
15:00 Legend Double Dagger 5.2 -4.9 48 31 21 16.1 97.47     LegendNANA
16:00 Legend Double Dagger 4.7 -4.4 52 31 13 16.1 97.50     LegendNANA
17:00 Legend Double Dagger 3.8 -5.2 52 32 22 16.1 97.52     LegendNANA
18:00 Legend Double Dagger 2.2 -4.1 63 33 13 16.1 97.55     LegendNANA
19:00 Legend Double Dagger 0.7 -4.4 69 32 13 16.1 97.57     LegendNANA
20:00 Legend Double Dagger -0.8 -4.3 77 28 8 16.1 97.56   -4 LegendNANA
21:00 Legend Double Dagger -1.4 -3.4 86 28 8 16.1 97.54   -4 LegendNANA
22:00 Legend Double Dagger -1.8 -3.6 88 27 8 16.1 97.51   -5 LegendNANA
23:00 Legend Double Dagger -1.6 -3.5 87 26 11 16.1 97.47   -5 LegendNANA

Notes on Data Quality.

Legend

  • E = Estimated
  • M = Missing
  • NA = Not Available
  • ‡ = Partner data that is not subject to review by the National Climate Archives
Date modified: